Tracking 28790 objects as of 19-Apr-2024
HD Live streaming from Space Station
objects crossing your sky now

COSMOS 1275 DEB

Track COSMOS 1275 DEB now!
10-day predictions


NORAD ID: 12705
Int'l Code: 1981-053AZ
Perigee: 876.6 km
Apogee: 916.9 km
Inclination: 82.9 °
Period: 102.8 minutes
Semi major axis: 7267 km
RCS: 0.2491 m2 (medium)
Launch date: June 4, 1981
Source: Commonwealth of Independent States (former USSR) (CIS)
Launch site: PLESETSK MISSILE AND SPACE COMPLEX (PKMTR)

Note: This is SATELLITE DEBRIS
Your satellite tracking list
Your tracking list is empty




NASA's NSSDC Master Catalog

Two Line Element Set (TLE):
1 12705U 81053AZ  24110.12207844  .00003399  00000-0  22443-2 0  9999
2 12705  82.8860 123.5216 0027710 357.5606  67.3605 14.01204912163627
Source of the keplerian elements: AFSPC